Regional Weather Roundup
Issued by NWS

Home | Current Version | Previous Version | Graphics & Text | Print | Product List | Glossary On
Versions: 1 2 3 4 5 6 7 8 9 10 11 12 13 14 15 16 17 18 19 20 21 22 23 24 25 26 27 28 29 30 31 32 33 34 35 36 37 38 39 40 41 42 43 44 45 46 47 48 49 50
000
ASUS45 KSLC 281010
RWRUT

UTAH REGIONAL WEATHER ROUNDUP
NATIONAL WEATHER SERVICE SALT LAKE CITY UT
400 AM MDT TUE APR 28 2015

UTZ001>011-023>025-281100-

NORTHERN UTAH

CITY           SKY/WX    TMP DP  RH WIND       PRES   REMARKS
BRIGHAM CITY   CLEAR     46  36  69 CALM      30.25R
HILL AFB       CLEAR     47  37  68 SE15      30.24S
LOGAN          CLEAR     40  35  83 N3        30.26S
OGDEN          CLEAR     47  37  68 S9        30.22F
PROVO AIRPORT  CLEAR     43  36  75 S3        30.25S
SALT LAKE CITY CLEAR     46  38  73 SE6       30.23S
VERNAL         CLEAR     39  31  72 W7        30.28R WCI  34
WENDOVER       CLEAR     45  21  39 SW5       30.23S
HEBER CITY     CLEAR     36  32  87 E3        30.29S
WEST JORDAN    CLEAR     43  36  75 CALM      30.25S

$$

UTZ012>022-026-027-281100-

SOUTHERN/CENTRAL UTAH

CITY           SKY/WX    TMP DP  RH WIND       PRES   REMARKS
BLANDING       CLEAR     42  35  76 CALM      30.29R
BRYCE CANYON   CLEAR     30  27  88 W7        30.30S WCI  23
CEDAR CITY     CLEAR     38  33  82 CALM      30.23R
DELTA          CLEAR     42  37  80 CALM      30.24R
HANKSVILLE     CLEAR     43  34  70 CALM      30.24R
MILFORD        CLEAR     35  27  72 CALM      30.23S
MOAB/CYNLANDS  CLEAR     44  39  82 W3        30.19R
PRICE          CLEAR     44  31  60 N8        30.26S
ST GEORGE      SUNNY     61  36  39 NE7       30.12S
KANAB          CLEAR     48  34  57 NW12      30.22R

$$

REGIONAL REPORTS     COLORADO/ARIZONA

CITY           SKY/WX    TMP DP  RH WIND       PRES   REMARKS
CRAIG, CO      CLEAR     33  30  88 SW3       30.30R
GRAND JUNCTION PTCLDY    46  40  79 E3        30.21R
RIFLE          PTCLDY    41  37  86 CALM      30.25R
MONTROSE       CLOUDY    46  39  76 CALM      30.26R
CORTEZ         PTCLDY    42  37  82 S6        30.24R
PAGE, AZ       NOT AVBL
GRAND CANYON   CLEAR     33  28  81 NE7       30.23R WCI  27
KINGMAN        CLEAR     49  30  48 SE6       30.07S
FLAGSTAFF      CLEAR     32  30  92 CALM      30.22R

$$

REGIONAL REPORTS    NEVADA/IDAHO/WYOMING

CITY           SKY/WX    TMP DP  RH WIND       PRES   REMARKS
LAS VEGAS, NV  CLEAR     64  33  31 S10       30.01S
ELY            CLEAR     25  18  74 S8        30.28S WCI  16
ELKO           CLEAR     34  26  72 CALM      30.22S
POCATELLO, ID  CLEAR     35  28  75 CALM      30.26F
BURLEY         CLEAR     35  31  85 CALM      30.23S
EVANSTON, WY   CLEAR     35  28  75 E7        30.32R WCI  29
ROCK SPRINGS   CLEAR     33  30  88 N3        30.35R
KEMMERER       CLEAR     34  32  93 N5        30.35S WCI  30

$$



USA.gov is the U.S. government's official web portal to all federal, state and local government web resources and services.